Dewpoint
55 55 56 56 56 56 57 57 57 57 57 57 57 58 58 58 58 58 58 58 59 59 59 59 60 60 60 61 61 61 60 55 54 50 48 43 50 65 62 65 61 65 60 42 40 33 32 32 32 32 37 36 39 36 43 39 41 39 32 29 25 30 26 29 23 23 24 17 17 19 21 19 19 20 21 23 22 24 22 22 23 23 22 22 23 27 42 49
55 55 54 55 55 55 56 56 56 56 57 57 57 57 57 58 58 58 58 58 58 59 59 59 60 60 60 60 61 61 58 55 45 45 42 59 66 65 65 62 63 63 55 42 34 33 31 29 30 30 38 33 46 36 41 39 40 34 33 30 26 30 29 27 25 20 20 22 21 21 21 21 21 21 22 19 19 20 19 20 21 21 21 21 19 21 45 48
56 55 55 55 55 55 55 56 56 56 57 57 57 57 57 57 57 58 58 58 58 58 58 59 59 60 60 60 60 60 56 53 50 40 47 64 66 66 64 63 62 61 43 42 37 31 29 27 29 28 38 29 36 36 39 38 36 37 31 29 30 33 29 25 21 20 21 22 22 23 23 24 23 22 23 21 19 21 21 20 22 21 21 20 20 21 41 46
56 55 55 55 55 55 55 56 56 56 57 57 57 57 57 57 58 58 57 57 58 58 58 59 59 59 60 60 60 58 56 49 42 38 51 65 62 67 65 63 63 60 49 41 40 34 32 30 26 28 33 30 32 42 36 38 33 36 31 30 31 30 26 26 24 21 25 26 26 26 25 24 24 23 23 21 20 21 22 23 22 21 21 22 20 21 34 43
56 56 55 55 54 54 55 56 56 56 57 57 57 58 57 58 58 57 58 57 57 58 58 58 59 59 59 60 59 56 49 21 31 48 57 63 65 66 65 64 63 54 48 45 38 33 31 29 25 31 30 24 30 29 33 37 33 35 30 31 31 30 28 27 24 22 27 27 25 26 24 23 25 23 22 23 21 20 21 22 23 23 22 21 21 22 25 26
56 55 55 54 54 56 57 56 57 57 57 57 58 58 58 58 58 58 57 57 57 57 57 58 58 59 59 59 56 55 33 17 30 43 64 66 66 68 65 65 62 48 42 41 37 32 29 28 26 28 25 24 24 21 19 30 33 28 30 29 29 28 27 27 23 26 27 26 25 24 25 26 25 24 23 22 21 21 22 24 23 22 22 23 23 26 27 27
56 55 55 54 55 56 57 56 56 57 58 58 58 58 58 58 58 58 58 57 57 57 57 58 58 58 59 58 54 46 35 29 42 59 65 67 67 66 65 64 60 49 44 38 34 32 31 29 25 28 27 27 23 22 22 24 31 29 28 28 27 26 26 26 24 23 24 27 24 25 28 26 26 24 24 22 22 22 22 22 23 23 23 21 20 20 23 26
56 56 55 55 56 56 56 57 57 57 57 57 57 58 58 58 58 58 57 57 57 57 57 57 57 58 58 54 48 40 39 31 41 61 64 66 64 63 59 54 50 50 43 37 33 30 31 27 25 29 23 21 20 20 23 23 23 24 24 29 28 27 27 24 23 22 23 23 26 26 24 23 26 25 25 24 24 24 23 23 22 22 21 21 21 20 21 25
57 56 55 56 56 56 56 56 56 57 57 57 57 57 58 58 58 58 58 58 57 57 57 57 57 58 58 54 42 35 32 44 51 62 62 59 59 57 48 43 47 43 40 38 35 34 32 28 28 27 21 26 25 24 24 21 20 24 22 27 23 22 22 21 21 21 21 21 23 23 22 24 25 27 23 24 24 24 23 22 21 21 21 20 20 20 19 19
58 57 55 56 56 56 56 56 56 56 57 57 57 58 58 58 58 58 57 57 57 57 56 56 57 57 52 48 40 34 41 45 57 61 63 56 55 53 50 49 43 41 38 36 35 33 31 30 31 36 34 28 27 23 23 24 20 24 22 23 22 21 21 22 21 20 21 21 20 18 17 17 22 23 19 21 21 21 19 18 17 17 18 19 19 18 18 19
57 56 55 56 56 56 56 56 56 56 57 57 58 58 58 58 58 57 57 57 56 56 56 56 58 55 50 48 36 32 47 55 52 60 60 53 50 45 47 50 44 41 41 39 36 41 38 38 41 37 36 26 24 22 22 22 23 23 21 21 21 21 20 20 20 19 20 19 20 19 18 18 20 24 18 19 20 20 19 18 17 18 18 17 18 17 25 21
56 55 55 56 56 56 56 56 56 57 58 58 58 58 58 58 58 57 57 56 56 56 56 56 57 55 52 46 38 36 46 51 55 54 52 52 51 52 50 49 44 47 42 38 44 45 47 42 39 29 24 30 25 25 22 23 23 22 22 20 20 20 19 20 19 19 19 18 19 18 18 17 21 17 19 19 20 19 19 19 18 17 17 20 20 19 19 25
58 56 56 56 56 56 56 56 57 58 58 58 58 58 58 58 57 57 56 56 56 56 56 56 57 55 50 33 38 48 50 49 53 51 50 51 49 49 50 50 47 45 45 42 42 43 46 43 36 30 35 30 27 23 26 26 23 22 22 21 19 19 19 19 20 19 19 18 20 19 17 18 17 17 17 18 18 18 17 17 17 18 18 17 20 19 27 33
57 57 56 56 56 57 57 57 58 58 59 59 59 59 59 58 57 57 56 56 57 56 57 57 55 54 43 32 43 47 46 48 52 50 50 51 45 48 50 48 50 47 48 44 44 42 43 43 38 34 38 30 27 34 26 24 24 19 21 20 20 20 19 21 22 21 18 21 19 18 18 17 17 17 18 19 19 17 17 17 17 18 18 18 21 23 32 32
58 57 56 58 57 58 58 58 58 59 59 59 59 59 59 58 58 56 57 57 57 55 56 57 54 48 31 29 46 50 58 47 45 47 49 47 45 43 47 45 43 43 37 41 41 44 38 42 35 28 27 31 32 27 23 21 20 20 18 20 27 19 21 21 22 20 17 19 19 17 20 17 16 17 17 18 18 17 17 17 17 18 18 17 20 29 31 31
58 57 57 57 57 58 59 58 58 59 59 59 59 59 59 59 57 57 57 56 54 56 54 51 51 51 34 24 43 54 44 40 42 46 44 52 47 43 46 45 45 43 38 33 40 38 34 38 29 28 29 28 24 23 22 23 26 26 19 24 22 24 21 22 23 21 22 18 18 17 17 18 16 17 17 17 18 17 17 16 17 17 17 26 30 30 31 31
58 58 58 58 58 59 59 59 58 58 59 59 59 59 59 56 56 56 56 57 56 55 54 51 52 48 25 37 38 38 37 45 47 47 43 46 48 45 41 41 39 39 38 36 40 37 34 29 33 28 34 26 23 27 22 24 22 24 25 19 26 21 22 22 24 24 24 17 15 16 15 15 16 16 16 17 17 17 17 17 17 18 22 30 30 31 30 31
58 58 58 58 59 59 59 59 59 59 59 59 59 59 58 56 57 57 55 57 55 54 54 56 50 37 32 37 30 32 44 42 47 46 46 43 46 43 39 35 39 37 38 33 34 28 33 28 27 27 27 27 22 22 21 19 22 24 26 26 25 26 24 23 23 22 23 19 18 17 15 15 15 16 17 17 17 17 18 18 18 20 29 30 30 30 30 30
59 58 58 59 59 59 59 59 59 59 59 59 59 57 57 56 55 54 54 54 48 42 37 36 35 30 31 31 37 44 47 48 46 44 40 41 44 44 42 39 39 31 31 30 29 28 31 33 31 27 23 25 22 20 20 23 24 24 25 25 26 25 24 22 23 23 23 21 21 20 20 19 18 18 19 19 20 19 19 20 24 28 29 30 30 30 30 30
59 59 59 59 59 59 59 59 59 59 59 58 56 54 52 48 47 43 43 48 42 41 39 36 34 36 36 34 42 44 48 44 38 44 44 45 40 40 36 35 38 36 29 29 32 30 33 28 25 24 25 24 24 22 21 21 22 23 27 27 24 24 24 24 23 23 23 21 19 19 19 19 19 19 20 20 21 23 22 24 28 29 29 30 30 30 29 30
59 59 59 59 59 59 59 59 60 59 59 58 56 52 42 44 42 41 42 42 42 40 37 37 33 32 31 43 43 39 35 36 39 43 45 48 43 34 32 34 35 31 32 33 29 31 28 27 28 27 25 25 24 24 23 22 23 21 24 25 24 27 23 24 23 23 24 22 22 20 20 21 20 21 22 22 23 22 24 27 28 29 29 30 30 29 29 29
59 59 59 59 59 59 59 60 60 59 59 57 55 50 43 43 44 45 43 41 45 46 43 40 40 38 38 43 41 42 40 34 38 43 47 45 38 30 31 33 31 29 33 33 31 29 26 25 26 28 27 26 26 26 26 25 26 27 25 25 25 24 27 24 24 23 21 23 19 21 21 22 21 22 22 23 27 29 30 29 30 29 29 29 29 29 29 28
59 59 59 59 59 59 60 60 59 59 57 53 50 47 45 44 46 47 43 42 41 44 44 44 43 43 43 36 39 37 34 34 34 42 42 43 37 34 31 30 30 29 34 29 28 29 27 30 28 28 29 28 27 27 26 27 29 26 25 23 22 25 24 22 24 25 24 23 24 24 22 22 23 23 24 27 29 29 31 31 31 30 29 29 28 28 28 28
59 59 59 59 59 59 60 59 59 56 54 53 50 47 47 47 47 45 43 39 40 42 44 44 44 43 43 39 38 38 36 37 37 39 42 39 32 37 32 29 29 30 28 28 28 29 27 29 29 29 30 28 27 27 27 26 25 29 28 26 25 26 26 24 22 27 26 25 28 24 26 25 25 23 25 26 27 27 28 29 29 31 32 31 31 30 29 27
59 59 59 59 59 59 59 58 55 54 53 51 48 47 48 46 47 47 43 39 39 41 45 44 45 43 39 44 44 36 37 39 40 40 41 40 32 32 31 31 29 28 29 28 28 30 30 30 32 30 31 28 30 27 28 29 28 28 30 28 27 28 26 30 32 25 24 24 28 26 22 24 26 24 26 24 24 25 27 27 28 28 29 29 28 28 29 30
59 59 59 59 59 59 59 54 52 53 52 52 48 48 48 48 48 46 41 36 33 39 41 39 43 39 42 34 41 40 36 33 38 41 48 43 42 34 30 31 30 29 29 32 28 30 28 31 32 31 30 30 29 28 30 29 27 25 25 34 33 30 30 30 29 26 22 18 24 27 20 21 25 25 26 24 24 24 26 28 28 28 28 28 28 28 28 27
59 59 59 59 59 59 55 51 53 53 51 51 50 50 50 49 50 45 40 33 31 39 39 40 38 38 40 35 38 37 31 33 41 38 39 43 33 41 30 29 30 30 29 31 31 28 29 29 30 32 32 30 29 27 31 29 28 25 30 34 33 29 26 29 27 25 24 26 28 26 25 21 22 25 25 24 23 24 25 26 27 27 27 27 27 27 27 27
59 59 59 59 59 58 57 56 54 52 51 51 51 50 48 49 49 47 39 32 30 38 36 35 37 40 38 32 39 32 31 35 32 32 38 41 39 33 32 30 30 31 28 31 26 33 28 29 29 29 29 29 29 30 32 33 28 28 32 29 27 26 26 28 24 24 25 22 23 24 26 21 22 25 25 22 22 23 24 25 26 27 27 27 27 28 27 28
58 59 58 59 59 58 58 57 55 53 52 50 49 49 50 50 47 41 36 31 35 37 37 32 40 38 35 32 31 28 28 31 26 32 39 38 40 32 32 31 29 27 27 30 28 30 32 32 33 33 30 28 32 31 34 33 28 32 32 30 29 28 28 26 23 22 23 20 20 23 26 19 21 27 25 21 22 22 23 25 26 27 27 27 27 27 28 28
58 58 58 58 58 57 56 57 55 52 50 49 49 49 50 47 42 38 34 29 37 34 33 34 34 32 30 27 28 28 24 27 32 34 34 31 36 36 31 30 27 27 28 31 29 31 31 30 32 33 30 30 30 30 33 34 31 33 31 27 28 27 26 25 25 23 20 16 22 24 27 22 18 24 27 20 22 22 24 26 26 27 27 27 27 27 28 27
56 56 57 57 56 56 56 54 56 52 52 51 52 53 51 48 40 35 31 35 40 37 33 32 30 33 25 26 25 26 29 29 32 32 30 32 31 31 31 27 31 29 27 28 26 29 29 30 27 30 34 30 31 29 32 32 32 28 24 23 24 25 25 24 21 23 17 16 22 25 26 26 18 21 26 21 21 23 25 25 25 26 27 27 27 27 27 27
54 54 56 57 56 57 55 53 54 52 51 52 54 52 48 39 41 33 32 37 34 37 33 31 32 31 26 33 31 26 25 27 31 29 28 29 29 28 28 27 26 23 24 23 24 28 26 28 31 32 34 27 28 26 27 29 29 26 24 23 19 18 20 14 17 14 14 17 22 23 26 24 23 23 24 25 26 24 25 26 26 26 27 27 27 27 28 28
52 53 55 55 56 56 55 54 52 52 52 54 53 50 43 36 30 37 37 36 37 37 35 38 32 29 32 32 31 31 32 25 27 27 32 31 30 30 32 30 32 27 22 25 25 24 26 29 31 30 31 32 30 24 24 24 25 23 22 22 19 12 11 7 11 15 14 19 23 22 23 19 24 25 26 26 26 26 26 27 27 27 26 27 27 27 28 27
52 53 53 52 54 54 53 52 52 52 53 53 51 46 40 33 32 40 36 35 38 37 38 33 30 32 33 28 33 31 26 33 27 26 29 28 29 27 29 31 32 31 27 26 23 23 19 23 26 31 27 32 28 26 28 28 25 23 26 23 22 18 11 7 9 7 11 16 20 24 18 18 15 20 27 26 27 26 26 27 27 27 27 27 26 26 26 25
52 53 52 53 53 54 52 52 52 53 54 52 47 42 34 33 34 34 35 36 37 37 34 38 34 33 31 31 35 34 32 31 30 29 27 30 28 28 29 29 32 32 33 28 30 24 24 25 28 33 32 30 29 31 34 31 27 26 27 28 22 22 25 16 18 17 19 20 20 18 20 22 22 27 28 27 26 26 26 26 26 25 25 25 25 25 25 25
51 51 53 52 52 54 52 52 52 54 53 49 43 37 34 35 32 35 36 39 37 36 35 37 36 31 30 30 34 30 35 31 33 31 30 30 31 30 32 33 33 31 32 27 27 19 22 21 31 31 31 28 29 33 32 30 20 25 27 22 28 30 27 22 24 24 22 20 21 19 22 25 25 25 26 26 25 25 25 25 25 25 25 24 24 24 24 25
49 50 48 50 51 54 53 52 53 53 52 48 42 36 39 37 38 39 41 38 37 37 36 33 35 30 32 31 30 33 33 33 32 29 27 31 28 31 31 31 36 32 30 27 25 26 22 24 32 29 28 31 30 31 31 31 30 26 23 26 29 31 29 25 19 19 18 18 17 18 16 18 17 16 25 25 24 24 24 24 24 25 25 24 25 25 25 24
48 48 48 48 51 54 53 53 54 53 50 46 40 39 40 38 41 38 41 39 40 39 35 34 35 34 33 32 31 33 35 31 32 29 27 30 27 34 33 30 33 32 31 32 25 29 31 23 26 31 31 31 31 30 29 32 32 28 27 31 22 19 21 24 21 15 14 14 13 18 20 19 20 21 24 24 24 24 24 24 24 23 23 23 24 24 25 25
48 47 45 47 54 54 53 53 53 50 46 41 39 39 43 40 42 41 40 39 40 40 35 37 35 37 35 32 33 34 33 29 31 29 27 28 25 32 30 35 30 32 29 29 27 29 30 21 24 30 31 31 29 29 25 26 30 31 30 26 29 25 21 18 21 19 19 17 16 15 18 18 23 24 24 24 24 24 23 23 22 22 22 23 23 24 24 24
45 43 42 52 54 54 53 53 50 48 44 38 39 39 43 41 42 41 41 40 40 38 38 37 39 36 37 37 36 33 35 34 32 32 31 33 30 33 30 37 30 30 32 33 32 34 27 27 19 26 30 30 24 27 25 27 24 25 24 23 24 23 28 26 24 22 20 17 19 19 17 21 26 28 26 25 24 24 23 24 24 24 23 24 24 24 24 23
46 44 44 52 54 54 53 51 46 43 42 41 41 40 41 40 42 42 42 43 43 45 43 40 40 38 37 36 38 38 35 35 35 34 34 35 29 29 39 38 36 33 37 34 33 33 24 26 26 26 27 26 27 30 30 31 31 29 29 25 25 22 21 20 21 26 23 22 21 21 20 23 29 30 26 24 25 25 25 24 25 25 24 25 25 24 24 25
43 38 43 51 54 54 50 43 42 43 40 39 39 41 39 44 41 42 43 44 43 42 45 42 42 39 38 39 39 32 35 35 35 34 35 35 36 34 37 39 37 36 33 30 32 36 29 30 25 25 27 27 29 32 34 34 32 33 32 29 31 29 28 24 22 25 25 24 22 20 20 20 28 31 28 27 26 25 25 26 25 25 25 25 25 25 26 25
40 38 47 50 54 52 47 41 42 41 40 40 42 41 42 41 40 42 41 42 40 42 41 40 40 38 39 38 38 38 37 34 37 36 36 35 35 36 38 37 38 36 35 32 35 35 36 29 26 26 29 30 30 32 33 33 32 29 28 27 26 27 27 27 25 25 20 17 20 17 20 25 30 30 28 27 27 27 28 26 27 25 25 25 25 24 25 24
41 43 44 49 52 51 44 36 36 38 40 40 41 40 42 41 40 40 40 41 39 40 40 40 40 39 37 39 38 36 38 33 35 35 34 35 32 38 37 36 36 36 33 34 32 35 30 28 29 25 24 25 23 22 27 29 30 25 25 27 27 27 28 26 24 24 23 22 23 18 17 22 33 30 29 28 28 28 28 28 27 26 26 25 24 24 24 24
42 44 45 47 50 48 40 40 37 37 39 38 39 39 39 40 41 40 40 40 41 40 38 38 39 39 38 39 38 37 37 36 32 33 34 33 34 36 36 36 36 35 37 37 38 33 29 26 28 23 22 19 13 8 8 21 27 27 29 27 26 27 25 23 21 23 22 27 26 24 23 26 32 32 30 29 30 30 31 28 27 26 26 24 24 23 23 19
38 32 41 42 46 45 44 45 42 40 36 37 38 38 39 38 40 42 41 40 40 40 38 40 39 38 37 36 36 35 35 35 34 30 31 31 34 34 36 36 37 36 37 38 34 33 25 27 26 25 24 22 20 16 24 27 23 20 21 21 24 24 24 24 23 22 21 22 21 21 22 22 22 23 24 28 26 28 28 28 27 26 24 24 23 22 19 16
38 34 36 33 43 42 40 43 41 42 36 38 35 37 37 38 38 39 42 37 41 41 40 40 38 36 36 35 34 34 35 34 34 32 30 30 32 33 36 34 34 35 38 35 35 28 25 24 25 23 24 25 24 25 26 27 24 24 23 24 24 21 21 19 20 18 21 18 18 21 22 20 22 23 23 22 25 27 27 27 27 26 25 23 22 20 25 17
33 35 40 41 36 33 36 37 41 40 40 39 36 35 35 36 37 35 39 40 38 40 37 36 38 37 36 35 34 32 33 32 32 31 31 31 33 34 33 33 31 34 35 32 32 28 24 21 20 26 24 26 26 26 25 22 24 23 22 21 20 21 19 15 15 22 23 21 19 21 22 20 21 21 21 21 22 21 20 20 21 24 25 22 21 20 19 18
36 31 34 37 35 37 37 37 40 40 40 40 37 36 33 34 35 36 36 35 36 34 38 33 35 37 36 35 34 31 31 28 28 29 28 27 29 28 29 29 30 32 28 27 29 27 19 15 20 23 20 19 22 22 23 22 21 22 22 22 22 21 21 20 20 20 20 20 21 21 21 21 21 22 22 21 21 22 22 23 23 23 22 22 21 20 20 20
33 30 27 35 35 32 36 38 39 40 37 39 36 37 34 33 33 34 35 36 33 33 35 34 32 33 35 34 33 32 30 30 26 27 27 26 25 25 26 27 27 27 26 27 28 27 22 16 25 20 16 12 18 23 20 19 20 18 19 19 20 20 20 21 20 20 21 21 21 21 21 20 21 20 20 22 24 23 22 20 21 22 22 21 21 20 20 20
31 34 34 31 31 31 31 37 38 38 36 37 36 36 36 34 33 34 35 36 34 33 34 34 33 31 31 33 33 32 32 29 29 29 29 28 28 27 27 24 28 24 23 22 23 23 22 15 20 18 11 8 11 14 15 15 17 16 16 16 16 16 16 17 18 19 18 17 18 17 16 18 20 22 21 20 18 17 17 17 16 19 21 20 20 17 16 15
32 32 34 30 29 34 31 30 36 37 33 36 36 35 35 35 35 33 30 34 33 34 34 34 33 32 31 31 31 32 32 32 32 32 31 30 30 30 28 28 28 27 20 21 23 19 19 17 15 13 13 11 16 15 14 14 14 14 16 18 18 18 18 19 20 20 20 19 17 15 16 18 20 22 20 19 11 11 9 9 8 8 10 11 10 11 13 15